Location: Waco, TX
(31.5480°N, 97.1670°W)
Time: 15:30:20
(UTC-06:00)

ISS - Pass Details

Date: 25 January 2021
Orbit: 417 x 422 km, 51.6° (Epoch: 07 March)

Event Time Altitude Azimuth Distance (km) Brightness Sun altitude
Rises 00:23:03 0° 311° (NW) 2,371 - -76.7°
Reaches altitude 10° 00:25:11 10° 307° (NW) 1,504 - -76.9°
Maximum altitude 00:28:29 56° 228° (SW) 503 - -77.0°
Drops below altitude 10° 00:31:47 10° 149° (SSE) 1,494 - -77.2°
Sets 00:33:54 0° 145° (SE) 2,353 - -77.2°
